This demonstration page uses our WeatherBlox Daily Observations layout. Learn more.

Left ArrowRight Arrow

38.20091, -84.87328

Hourly Observations for January 31, 2016

Temp ( °F °C ) Dew Point ( °F °C ) Humidity (%) Winds ( mph kmh ) Pressure ( in mb ) Visibility ( mi km ) Precip ( " mm )
12:53 am 00:53 Clear 57 13.9 34 1.1 42 42 SSW 16 26 29.83 1010 10 16 0.00 0.00
1:53 am 01:53 Clear 55 12.8 35 1.7 47 47 SSW 14 22 29.81 1010 10 16 0.00 0.00
2:53 am 02:53 Clear 55 12.8 37 2.8 51 51 SSW 13 20 29.82 1010 10 16 0.00 0.00
3:53 am 03:53 Clear 54 12.2 39 3.9 57 57 SSW 14 22 29.80 1009 10 16 0.00 0.00
4:53 am 04:53 Clear 54 12.2 40 4.4 59 59 SSW 13 20 29.80 1009 10 16 0.00 0.00
5:53 am 05:53 Clear 54 12.2 42 5.6 64 64 S 15 24 29.80 1009 10 16 0.00 0.00
6:53 am 06:53 Cloudy 55 12.8 44 6.7 67 67 SSW 15 24 29.81 1010 10 16 0.00 0.00
7:04 am 07:04 Cloudy 55 12.8 45 7.2 69 69 S 14 22 29.83 1010 10 16 0.00 0.00
7:53 am 07:53 Cloudy 56 13.3 46 7.8 70 70 SSW 16 26 29.80 1009 10 16 0.00 0.00
8:53 am 08:53 Cloudy 56 13.3 46 7.8 70 70 S 17 28 29.80 1009 10 16 0.00 0.00
9:20 am 09:20 Cloudy 57 13.9 46 7.8 67 67 SSW 18 30 29.80 1009 10 16 0.00 0.00
9:30 am 09:30 Cloudy 57 13.9 46 7.8 67 67 S 15 24 29.80 1009 10 16 0.00 0.00
9:53 am 09:53 Cloudy 57 13.9 46 7.8 67 67 SSW 20 31 29.79 1009 10 16 0.00 0.00
10:50 am 10:50 Cloudy 61 16 46 8 59 59 SSW 22 35 29.80 1009 10 16 0.00 0.00
10:53 am 10:53 Cloudy 60 15.6 47 8.3 62 62 SSW 18 30 29.78 1009 10 16 0.00 0.00
11:53 am 11:53 Cloudy 62 16.7 47 8.3 58 58 SSW 18 30 29.77 1008 10 16 0.00 0.00
12:53 pm 12:53 Mostly Cloudy 63 17.2 47 8.3 56 56 SW 24 39 29.73 1007 10 16 0.00 0.00
1:53 pm 13:53 Cloudy 65 18.3 47 8.3 52 52 SSW 17 28 29.70 1006 10 16 0.00 0.00
2:53 pm 14:53 Partly Cloudy 65 18.3 47 8.3 52 52 SSW 24 39 29.68 1005 10 16 0.00 0.00
3:53 pm 15:53 Cloudy 66 18.9 47 8.3 50 50 SSW 20 31 29.69 1005 10 16 0.00 0.00
4:53 pm 16:53 Cloudy 66 18.9 48 8.9 52 52 SSW 16 26 29.69 1006 10 16 0.00 0.00
5:53 pm 17:53 Sunny 64 17.8 47 8.3 54 54 SSW 18 30 29.70 1006 10 16 0.00 0.00
6:53 pm 18:53 Cloudy 64 17.8 48 8.9 56 56 SSW 12 19 29.73 1007 10 16 0.00 0.00
7:53 pm 19:53 Cloudy 64 17.8 48 8.9 56 56 SSW 16 26 29.75 1007 10 16 0.00 0.00
8:53 pm 20:53 Mostly Cloudy 63 17.2 48 8.9 58 58 SSW 15 24 29.75 1007 10 16 0.00 0.00
9:53 pm 21:53 Cloudy 63 17.2 49 9.4 60 60 SSW 15 24 29.76 1008 10 16 0.00 0.00
10:53 pm 22:53 Cloudy with Light Rain 59 15 53 11.7 81 81 WSW 7 11 29.78 1009 10 16 0.03 0.76
11:53 pm 23:53 Cloudy 58 14.4 52 11.1 81 81 SW 10 17 29.78 1009 10 16 0.00 0.03

Powered by AerisWeather